Home > Weather > Koszalin > Past weeks

Flag for Poland Past Weather in Koszalin, Poland — Yesterday and Last 2 Weeks

Now
75 °F

Partly sunny.


Feels Like: 78 °F
Forecast: 59 / 77 °F
Wind: 5 mph from Southwest

Location: Koszalin

Current Time: Jul 1, 2016 at 11:52:12 AM

Latest Report: Jul 1, 2016 at 11:00 AM


Visibility: 16 mi

Pressure: 29.95 "Hg

Humidity: 52%

Dew Point: 56 °F

Location of KoszalinLocation

Past Weather in Koszalin — Graph

°F

Koszalin Temperature Yesterday

Maximum temperature yesterday: 76 °F (at 3:00 PM)
Minimum temperature yesterday: 56 °F (at 5:00 AM)
Average temperature yesterday: 67 °F

High & Low Weather Summary for the Past Weeks

 TemperatureHumidityPressure
High90 °F (Jun 25, 2:00 PM)98% (Jun 17, 1:00 PM)30.28 "Hg (Jun 17, 1:00 PM)
Low50 °F (Jun 20, 5:00 AM)39% (Jun 25, 2:00 PM)29.35 "Hg (Jun 17, 1:00 PM)
Average65 °F76%29.98 "Hg
* Reported Jun 16 10:00 AM — Jul 1 10:00 AM, Koszalin, Weather by CustomWeather, © 2016

Note: Actual official high and low records may vary slightly from our data, if they occured in-between our weather recording intervals... More about our weather records

Advertising

Koszalin Weather History for the Previous 24 Hours

Scroll right to see more
 ConditionsComfort  
Time TempWeatherWind HumidityBarometerVisibility
10:00 AM
Fri, Jul 1
73 °FPassing clouds.5 mph57%29.94 "Hg22 mi
9:00 AM71 °FPassing clouds.3 mph61%29.94 "Hg22 mi
8:00 AM68 °FPassing clouds.2 mph74%29.94 "Hg19 mi
7:00 AM63 °FPassing clouds.2 mph83%29.95 "Hg19 mi
6:00 AM61 °FPartly sunny.2 mph86%29.95 "Hg19 mi
5:00 AM60 °FPartly sunny.1 mph88%29.94 "Hg19 mi
4:00 AM60 °FPassing clouds.2 mph89%29.94 "Hg17 mi
3:00 AM61 °FPassing clouds.2 mph90%29.94 "Hg18 mi
2:00 AM61 °FPassing clouds.1 mph87%29.94 "Hg15 mi
1:00 AM63 °FPassing clouds.1 mph86%29.95 "Hg19 mi
12:00 AM63 °FPassing clouds.No wind83%29.95 "Hg22 mi
11:00 PM
Thu, Jun 30
64 °FPassing clouds.1 mph78%29.94 "Hg31 mi
10:00 PM66 °FOvercast.2 mph72%29.94 "Hg31 mi
9:00 PM67 °FOvercast.1 mph75%29.92 "Hg28 mi
8:00 PM72 °FSprinkles. Overcast.2 mph60%29.90 "Hg25 mi
7:00 PM74 °FOvercast.2 mph55%29.90 "Hg28 mi
6:00 PM76 °FOvercast.3 mph47%29.89 "Hg22 mi
5:00 PM76 °FOvercast.3 mph47%29.89 "Hg28 mi
4:00 PM76 °FOvercast.2 mph49%29.90 "Hg25 mi
3:00 PM76 °FOvercast.1 mph48%29.90 "Hg25 mi
2:00 PM75 °FOvercast.1 mph48%29.91 "Hg22 mi
1:00 PM75 °FOvercast.2 mph46%29.92 "Hg19 mi
12:00 PM74 °FOvercast.1 mph44%29.93 "Hg19 mi
11:00 AM71 °FOvercast.2 mph53%29.93 "Hg22 mi
Weather by CustomWeather, © 2016

See weather overviewHow to use our weather pages